Torna al catalogo

STARLINK-30439

AttivoComunicazioniVLEO
NORAD 57867·PAYLOAD·🇺🇸 United States

Lanciato Sep 16, 2023 da Cape Canaveral Space Force Station

Loading…

Prossimi Passaggi (prossime 24 ore)

TLE

AggiornatoSource: CelesTrak SupGP

Epoca: Sep 15, 2026, 02:52 UTC

1 57867C 23144D   26258.11993056  .00014032  00000+0  50815-3 0  2583
2 57867  43.0019 295.3568 0001366 262.0390 286.3978 15.27577192    18

Traccia STARLINK-30439 in tempo reale con AllMySat

Download on the App Store